GW5308 Weather Reports


time (UTC)temp
F
wind
direction
speed
knots
gust
knots
rain 1hr
in
rain 24hr
in
rain mn
in
humidity
%
barometer
mb
20260510003045 73 0 0.0 0.0 0.00 0.12 0.12 98 1013.0
20260510002515 73 0 0.0 0.0 0.00 0.12 0.12 98 1012.9
20260510002014 74 0 0.0 0.0 0.00 0.12 0.12 97 1012.7
20260510001531 74 0 0.0 0.0 0.00 0.12 0.12 97 1012.7
20260510001014 74 0 0.0 0.0 0.00 0.12 0.12 97 1012.6
20260510000516 74 0 0.0 0.9 0.00 0.12 0.12 96 1012.6
20260510000037 74 0 0.0 0.9 0.00 0.12 0.12 95 1012.5
20260509235516 74 0 0.0 0.9 0.00 0.13 0.12 95 1012.4
20260509235016 74 0 0.0 0.9 0.00 0.13 0.12 95 1012.4
20260509234555 75 0 0.0 0.9 0.00 0.13 0.12 96 1012.3
20260509234014 75 0 0.0 0.0 0.00 0.13 0.12 96 1012.2
20260509233516 75 0 0.0 0.0 0.00 0.13 0.12 96 1012.3
20260509233042 75 0 0.0 0.9 0.00 0.13 0.12 95 1012.3
20260509232517 75 169 0.0 0.9 0.00 0.13 0.12 95 1012.2
20260509232016 75 0 0.0 2.6 0.00 0.13 0.12 95 1012.2
20260509231545 75 0 0.0 2.6 0.00 0.13 0.12 96 1012.3
20260509231016 75 0 0.0 1.7 0.00 0.13 0.12 96 1012.2
20260509230513 75 0 0.0 1.7 0.00 0.13 0.12 96 1012.2
20260509230032 75 6 0.0 2.6 0.00 0.13 0.12 96 1012.0
20260509225512 75 0 0.0 2.6 0.00 0.13 0.12 96 1011.9
20260509225016 76 0 0.0 1.7 0.00 0.13 0.12 96 1011.8
20260509224533 76 351 0.0 1.7 0.00 0.13 0.12 96 1011.8
20260509224016 76 0 0.0 1.7 0.01 0.13 0.12 96 1011.9
20260509223515 76 18 0.0 1.7 0.01 0.13 0.12 96 1011.9
20260509223035 76 0 0.0 1.7 0.01 0.13 0.12 96 1012.0
20260509222514 76 29 0.0 1.7 0.01 0.13 0.12 96 1011.9
20260509222015 76 0 0.0 1.7 0.01 0.13 0.12 96 1011.9
20260509221531 76 0 0.0 0.9 0.01 0.13 0.12 96 1012.0
20260509221017 76 0 0.0 2.6 0.01 0.13 0.12 96 1011.8
20260509220516 76 8 0.9 2.6 0.01 0.13 0.12 95 1012.0
20260509220031 76 0 0.9 1.7 0.01 0.13 0.12 95 1012.0
20260509215514 76 0 0.0 1.7 0.01 0.13 0.12 95 1011.9
20260509215018 77 325 0.0 1.7 0.07 0.13 0.12 94 1011.8
20260509214533 77 0 0.0 1.7 0.07 0.12 0.11 93 1011.9
20260509214012 77 0 0.0 1.7 0.11 0.12 0.11 94 1011.9
20260509213524 78 0 0.0 1.7 0.11 0.12 0.11 94 1011.7
20260509213031 78 0 0.0 1.7 0.11 0.12 0.11 95 1011.6
20260509212513 78 314 0.0 1.7 0.11 0.12 0.11 94 1011.4
20260509212014 78 0 0.0 2.6 0.11 0.12 0.11 95 1011.5
20260509211534 78 0 0.0 2.6 0.11 0.12 0.11 95 1011.4
20260509211015 78 330 0.0 2.6 0.11 0.12 0.11 93 1011.4
20260509210516 78 3 0.0 1.7 0.11 0.12 0.11 95 1011.2
20260509210038 78 0 0.0 1.7 0.11 0.12 0.11 92 1011.0
20260509205514 79 0 0.0 0.9 0.10 0.11 0.10 91 1010.9
20260509205015 80 0 0.0 1.7 0.05 0.06 0.05 88 1011.3
20260509204535 81 214 0.0 3.5 0.04 0.05 0.04 84 1011.4
20260509204017 82 0 0.0 3.5 0.00 0.01 0.00 78 1011.0
20260509203514 82 355 0.0 5.2 0.00 0.01 0.00 75 1010.8
20260509203040 83 324 0.9 5.2 0.00 0.01 0.00 75 1010.6
20260509202513 84 293 1.7 5.2 0.00 0.01 0.00 73 1010.7
20260509202015 85 329 0.9 4.3 0.00 0.01 0.00 72 1010.8
20260509201530 85 235 0.9 4.3 0.00 0.01 0.00 71 1010.8
20260509201013 85 337 0.9 2.6 0.00 0.01 0.00 71 1010.8
20260509200519 86 273 0.9 2.6 0.00 0.01 0.00 71 1010.9
20260509200030 87 184 0.0 4.3 0.00 0.01 0.00 69 1010.8
20260509195514 88 219 0.9 4.3 0.00 0.01 0.00 66 1010.8
20260509195017 90 205 0.9 2.6 0.00 0.01 0.00 60 1010.6
20260509194532 92 0 0.0 0.9 0.00 0.01 0.00 58 1010.6
20260509194013 92 169 0.0 0.9 0.00 0.01 0.00 56 1010.4
20260509193516 92 261 0.0 0.9 0.00 0.01 0.00 57 1010.4
20260509193036 92 0 0.0 1.7 0.00 0.01 0.00 58 1010.4
20260509192514 92 238 0.0 1.7 0.00 0.01 0.00 57 1010.6
20260509192018 92 0 0.0 1.7 0.00 0.01 0.00 57 1010.6
20260509191533 92 261 0.0 1.7 0.00 0.01 0.00 55 1010.7
20260509191015 92 224 0.0 1.7 0.00 0.01 0.00 56 1010.7
20260509190512 92 0 0.0 1.7 0.00 0.01 0.00 55 1010.9
20260509190035 92 139 0.0 2.6 0.00 0.01 0.00 55 1011.0
20260509185512 92 240 0.9 2.6 0.00 0.01 0.00 54 1011.0
20260509185014 93 227 0.0 1.7 0.00 0.01 0.00 53 1011.0
20260509184540 93 0 0.0 2.6 0.00 0.01 0.00 55 1011.1
20260509184014 93 225 0.0 4.3 0.00 0.01 0.00 55 1011.0
20260509183514 93 221 1.7 4.3 0.00 0.01 0.00 54 1011.1
20260509183035 93 252 0.9 2.6 0.00 0.01 0.00 52 1011.3
20260509182514 94 206 0.0 2.6 0.00 0.01 0.00 53 1011.3
20260509182018 94 0 0.0 2.6 0.00 0.01 0.00 53 1011.5
20260509181531 93 212 0.9 2.6 0.00 0.01 0.00 54 1011.4
20260509181014 93 208 0.9 2.6 0.00 0.01 0.00 55 1011.6
20260509180514 93 212 0.0 2.6 0.00 0.01 0.00 54 1011.6
20260509180031 92 240 0.9 2.6 0.00 0.01 0.00 55 1011.5
20260509175522 93 157 0.0 2.6 0.00 0.01 0.00 55 1011.5
20260509175014 93 219 0.9 2.6 0.00 0.01 0.00 54 1011.7
20260509174532 92 259 0.9 3.5 0.00 0.01 0.00 56 1011.7
20260509174011 92 0 0.9 3.5 0.00 0.01 0.00 54 1011.7
20260509173522 93 196 0.0 2.6 0.00 0.01 0.00 53 1011.7
20260509173032 93 169 0.0 2.6 0.00 0.01 0.00 54 1011.8
20260509172515 93 215 0.9 2.6 0.00 0.01 0.00 54 1011.8
20260509172015 93 270 0.9 3.5 0.00 0.01 0.00 53 1011.7
20260509171537 93 212 0.9 3.5 0.00 0.01 0.00 55 1011.6
20260509171015 93 169 0.0 3.5 0.00 0.01 0.00 55 1011.7
20260509170514 93 337 0.9 2.6 0.00 0.01 0.00 56 1011.8
20260509170032 93 238 0.9 2.6 0.00 0.01 0.00 56 1011.8
20260509165515 93 244 0.0 2.6 0.00 0.01 0.00 58 1011.7
20260509165015 93 235 0.9 2.6 0.00 0.01 0.00 57 1011.9
20260509164531 92 266 0.0 1.7 0.00 0.01 0.00 60 1011.9
20260509164016 91 245 0.0 1.7 0.00 0.01 0.00 60 1012.1
20260509163515 92 46 0.9 1.7 0.00 0.01 0.00 60 1012.1
20260509163053 91 199 0.0 1.7 0.00 0.01 0.00 64 1012.1
20260509162516 91 340 0.0 2.6 0.00 0.01 0.00 61 1012.1
20260509162015 90 0 0.0 2.6 0.00 0.01 0.00 63 1012.1
20260509161549 90 0 0.0 2.6 0.00 0.01 0.00 63 1012.2
20260509161016 90 236 0.9 1.7 0.00 0.01 0.00 65 1012.3
20260509160514 89 248 0.0 2.6 0.00 0.01 0.00 65 1012.2
20260509160037 89 219 0.9 2.6 0.00 0.01 0.00 65 1012.4
20260509155514 89 245 0.9 2.6 0.00 0.01 0.00 64 1012.4
20260509155020 90 219 0.9 1.7 0.00 0.01 0.00 64 1012.3
20260509154538 90 243 0.0 1.7 0.00 0.01 0.00 66 1012.3
20260509154017 89 252 0.9 1.7 0.00 0.01 0.00 67 1012.3
20260509153514 88 0 0.0 1.7 0.00 0.01 0.00 70 1012.4
20260509153040 88 0 0.0 3.5 0.00 0.01 0.00 70 1012.5
20260509152515 87 196 0.9 3.5 0.00 0.01 0.00 71 1012.5
20260509152014 87 265 0.9 3.5 0.00 0.01 0.00 73 1012.7
20260509151534 87 256 0.9 3.5 0.00 0.01 0.00 73 1012.8
20260509151016 87 207 0.9 3.5 0.00 0.01 0.00 74 1012.9
20260509150515 87 0 0.0 1.7 0.00 0.01 0.00 76 1012.9
20260509150035 86 0 0.0 2.6 0.00 0.01 0.00 79 1012.9
20260509145516 86 245 0.0 2.6 0.00 0.01 0.00 78 1013.0
20260509145020 86 0 0.0 1.7 0.00 0.01 0.00 78 1013.0
20260509144534 86 0 0.0 1.7 0.00 0.01 0.00 78 1013.1
20260509144014 86 0 0.0 2.6 0.00 0.01 0.00 80 1013.0
20260509143514 86 0 0.0 2.6 0.00 0.01 0.00 80 1013.0
20260509143043 85 0 0.0 0.9 0.00 0.01 0.00 80 1013.0
20260509142517 85 0 0.0 1.7 0.00 0.01 0.00 81 1012.9
20260509142016 84 245 0.0 1.7 0.00 0.01 0.00 82 1012.8
20260509141533 84 260 0.0 1.7 0.00 0.01 0.00 82 1012.8
20260509141015 84 259 0.0 1.7 0.00 0.01 0.00 85 1012.7
20260509140517 82 0 0.0 1.7 0.00 0.01 0.00 86 1012.7
20260509140033 81 274 0.0 1.7 0.00 0.01 0.00 86 1012.7
20260509135517 81 223 0.0 1.7 0.00 0.01 0.00 88 1012.6
20260509135014 80 0 0.0 2.6 0.00 0.01 0.00 89 1012.7
20260509134534 80 253 0.9 2.6 0.00 0.01 0.00 88 1012.5
20260509134014 80 0 0.0 1.7 0.00 0.01 0.00 89 1012.3
20260509133518 80 0 0.0 1.7 0.00 0.01 0.00 89 1012.4
20260509133034 80 0 0.0 2.6 0.00 0.01 0.00 89 1012.3
20260509132514 80 255 0.0 2.6 0.00 0.01 0.00 90 1012.4
20260509132018 79 352 0.0 2.6 0.00 0.01 0.00 90 1012.5
20260509131531 79 270 0.0 2.6 0.00 0.01 0.00 91 1012.5
20260509131016 79 0 0.0 2.6 0.00 0.01 0.00 91 1012.5
20260509130518 78 0 0.0 0.0 0.00 0.01 0.00 93 1012.4
20260509130033 77 0 0.0 0.0 0.00 0.01 0.00 94 1012.5
20260509125523 76 0 0.0 0.0 0.00 0.01 0.00 94 1012.6
20260509125016 76 0 0.0 1.7 0.00 0.01 0.00 95 1012.6
20260509124540 76 0 0.0 1.7 0.00 0.01 0.00 95 1012.5
20260509124014 75 0 0.0 0.0 0.00 0.01 0.00 96 1012.6
20260509123515 75 0 0.0 0.0 0.00 0.01 0.00 97 1012.5
20260509123034 74 0 0.0 0.0 0.00 0.01 0.00 98 1012.5
20260509122517 74 0 0.0 0.0 0.00 0.01 0.00 98 1012.3
20260509122017 73 0 0.0 0.0 0.00 0.01 0.00 98 1012.2
20260509121549 73 0 0.0 0.0 0.00 0.01 0.00 99 1012.2
20260509121016 73 0 0.0 0.9 0.00 0.01 0.00 99 1012.4
20260509120516 73 0 0.0 0.9 0.00 0.01 0.00 99 1012.4
20260509120038 72 304 0.0 0.9 0.00 0.01 0.00 100 1012.3
20260509115514 72 0 0.0 0.9 0.00 0.01 0.00 100 1012.4
20260509115017 72 0 0.0 0.0 0.00 0.01 0.00 100 1012.3
20260509114549 71 0 0.0 0.0 0.00 0.01 0.00 100 1012.3
20260509114016 71 0 0.0 0.0 0.00 0.01 0.00 100 1012.3
20260509113516 71 0 0.0 0.0 0.00 0.01 0.00 100 1012.3
20260509113032 71 0 0.0 0.0 0.00 0.01 0.00 100 1012.4
20260509112516 71 0 0.0 0.0 0.00 0.01 0.00 100 1012.4
20260509112029 71 0 0.0 0.0 0.00 0.01 0.00 100 1012.2
20260509111531 70 0 0.0 0.0 0.00 0.01 0.00 100 1012.2
20260509111014 70 0 0.0 0.0 0.00 0.01 0.00 100 1012.0
20260509110514 70 0 0.0 0.0 0.00 0.01 0.00 100 1012.0
20260509110033 70 0 0.0 0.0 0.00 0.01 0.00 100 1012.1
20260509105516 70 0 0.0 0.0 0.00 0.01 0.00 100 1012.1
20260509105016 70 0 0.0 0.0 0.00 0.01 0.00 100 1012.1
20260509104534 70 0 0.0 0.0 0.00 0.01 0.00 100 1012.1
20260509104013 70 0 0.0 0.0 0.00 0.01 0.00 100 1012.0
20260509103515 70 0 0.0 0.0 0.00 0.01 0.00 100 1012.1
20260509103035 70 0 0.0 0.0 0.00 0.01 0.00 100 1012.1
20260509102516 70 0 0.0 0.0 0.00 0.01 0.00 100 1012.2
20260509102015 70 0 0.0 0.0 0.00 0.01 0.00 100 1012.2
20260509101537 70 0 0.0 0.0 0.00 0.01 0.00 100 1012.2
20260509101014 70 0 0.0 0.0 0.00 0.01 0.00 100 1012.1
20260509100517 70 0 0.0 0.0 0.00 0.01 0.00 100 1011.9
20260509100034 70 0 0.0 0.0 0.00 0.01 0.00 100 1011.8
20260509095515 70 0 0.0 0.0 0.00 0.01 0.00 100 1012.0
20260509095015 70 0 0.0 0.0 0.00 0.01 0.00 100 1012.1
20260509094544 70 0 0.0 0.0 0.00 0.01 0.00 100 1012.1
20260509094015 70 0 0.0 0.0 0.00 0.01 0.00 100 1012.2
20260509093518 70 0 0.0 0.0 0.00 0.01 0.00 100 1012.2
20260509093035 70 0 0.0 0.0 0.00 0.01 0.00 100 1012.2
20260509092515 70 0 0.0 0.0 0.00 0.01 0.00 100 1012.1
20260509092016 70 0 0.0 0.0 0.00 0.01 0.00 100 1012.1
20260509091534 70 0 0.0 0.0 0.00 0.01 0.00 100 1012.1
20260509091014 70 0 0.0 0.0 0.00 0.01 0.00 100 1012.0
20260509090515 70 0 0.0 0.0 0.00 0.01 0.00 100 1012.0
20260509090053 70 0 0.0 0.0 0.00 0.01 0.00 100 1012.0
20260509085514 70 0 0.0 0.0 0.00 0.01 0.00 100 1012.1
20260509085020 70 0 0.0 0.0 0.00 0.01 0.00 100 1012.1
20260509084542 70 0 0.0 0.0 0.00 0.01 0.00 100 1012.0
20260509084017 70 0 0.0 0.0 0.00 0.01 0.00 100 1012.1
20260509083516 70 0 0.0 0.0 0.00 0.01 0.00 100 1012.0
20260509083045 70 0 0.0 0.0 0.00 0.01 0.00 100 1011.9
20260509082516 70 0 0.0 0.9 0.00 0.01 0.00 100 1011.8
20260509082020 70 0 0.0 3.5 0.00 0.01 0.00 100 1011.9
20260509081540 71 0 0.0 5.2 0.00 0.01 0.00 100 1012.0
20260509081017 71 0 0.9 5.2 0.00 0.01 0.00 100 1012.0
20260509080514 71 312 0.0 2.6 0.00 0.01 0.00 100 1012.0
20260509080051 71 347 0.0 2.6 0.00 0.01 0.00 100 1012.0
20260509075514 71 0 0.0 0.9 0.00 0.01 0.00 100 1012.0
20260509075016 71 0 0.0 0.0 0.00 0.01 0.00 100 1012.0
20260509074539 71 0 0.0 0.9 0.00 0.01 0.00 100 1011.9
20260509074017 71 0 0.0 1.7 0.00 0.01 0.00 100 1011.9
20260509073516 71 335 0.0 1.7 0.00 0.01 0.00 100 1012.1
20260509073032 71 0 0.0 2.6 0.00 0.01 0.00 100 1012.0
20260509072519 71 282 0.0 2.6 0.00 0.01 0.00 100 1012.0
20260509072016 71 0 0.0 2.6 0.00 0.01 0.00 100 1012.1
20260509071534 71 0 0.0 0.9 0.00 0.01 0.00 100 1012.0
20260509071014 71 0 0.0 0.9 0.00 0.01 0.00 100 1012.1
20260509070514 71 0 0.0 1.7 0.00 0.01 0.00 100 1012.1
20260509070040 71 0 0.0 1.7 0.00 0.01 0.00 100 1012.3
20260509065519 71 0 0.0 0.0 0.00 0.01 0.00 100 1012.5
20260509065016 71 0 0.0 0.0 0.00 0.01 0.00 100 1012.7
20260509064534 71 0 0.0 0.9 0.00 0.01 0.00 100 1012.8
20260509064015 71 0 0.0 0.9 0.00 0.01 0.00 100 1012.7
20260509063515 70 322 0.0 0.9 0.00 0.01 0.00 100 1012.7
20260509063031 70 0 0.0 2.6 0.00 0.01 0.00 100 1012.8
20260509062514 70 0 0.0 2.6 0.00 0.01 0.00 100 1012.8
20260509062016 70 0 0.0 1.7 0.00 0.01 0.00 100 1012.9
20260509061535 70 0 0.0 1.7 0.00 0.01 0.00 100 1012.8
20260509061016 69 0 0.0 0.9 0.00 0.01 0.00 100 1013.0
20260509060513 69 0 0.0 0.0 0.00 0.01 0.00 100 1012.9
20260509060035 69 0 0.0 0.0 0.00 0.01 0.00 100 1012.9
20260509055517 69 0 0.0 0.0 0.00 0.01 0.00 100 1012.9
20260509055016 69 0 0.0 0.0 0.00 0.01 0.00 100 1013.0
20260509054531 68 0 0.0 0.0 0.00 0.01 0.00 100 1013.2
20260509054015 68 0 0.0 0.0 0.00 0.01 0.00 100 1013.2
20260509053515 68 0 0.0 0.0 0.00 0.01 0.00 100 1013.1
20260509053042 68 0 0.0 0.0 0.00 0.01 0.00 100 1013.2
20260509052514 69 0 0.0 0.0 0.00 0.01 0.00 100 1013.1
20260509052014 69 0 0.0 0.0 0.00 0.01 0.00 100 1013.3
20260509051539 68 0 0.0 0.0 0.00 0.01 0.00 100 1013.4
20260509051014 69 0 0.0 0.0 0.00 0.01 0.00 100 1013.3
20260509050519 69 0 0.0 0.0 0.00 0.01 0.00 100 1013.3
20260509050049 69 0 0.0 0.0 0.00 0.01 0.00 100 1013.3
20260509045515 69 0 0.0 0.0 0.00 0.01 0.00 100 1013.2
20260509045014 69 0 0.0 0.0 0.00 0.01 0.00 100 1013.4
20260509044536 68 0 0.0 0.0 0.00 0.01 0.00 100 1013.4
20260509044020 69 0 0.0 0.0 0.00 0.01 0.00 100 1013.6
20260509043516 69 0 0.0 0.0 0.00 0.01 0.00 100 1013.6
20260509043043 69 0 0.0 0.0 0.00 0.01 0.00 100 1013.7
20260509042514 69 0 0.0 0.0 0.00 0.01 0.00 100 1013.7
20260509042014 69 0 0.0 0.0 0.00 0.01 0.00 100 1013.8
20260509041538 69 0 0.0 0.0 0.00 0.01 0.00 100 1013.7
20260509041014 69 0 0.0 0.0 0.00 0.01 0.00 100 1013.7
20260509040513 69 0 0.0 0.0 0.00 0.01 0.00 100 1013.7
20260509040032 69 0 0.0 0.0 0.00 0.01 0.00 100 1013.9
20260509035514 69 0 0.0 0.0 0.00 0.01 0.01 100 1013.8
20260509035014 69 0 0.0 0.0 0.00 0.01 0.01 100 1013.9
20260509034534 69 0 0.0 0.0 0.00 0.01 0.01 100 1013.8
20260509034016 69 0 0.0 0.0 0.00 0.01 0.01 100 1013.7
20260509033519 70 0 0.0 0.0 0.00 0.01 0.01 99 1013.7
20260509033038 70 0 0.0 0.0 0.00 0.01 0.01 100 1013.9
20260509032521 70 0 0.0 0.0 0.00 0.01 0.01 100 1013.8
20260509032014 70 0 0.0 0.0 0.00 0.01 0.01 99 1013.9
20260509031534 70 0 0.0 0.0 0.00 0.01 0.01 99 1013.9
20260509031015 70 0 0.0 0.0 0.00 0.01 0.01 99 1013.9
20260509030518 70 0 0.0 0.0 0.00 0.01 0.01 99 1014.0
20260509030035 70 0 0.0 0.0 0.00 0.01 0.01 99 1014.0
20260509025514 70 0 0.0 0.0 0.00 0.01 0.01 99 1014.1
20260509025014 71 0 0.0 0.0 0.00 0.01 0.01 99 1014.0
20260509024539 71 0 0.0 0.0 0.00 0.01 0.01 99 1013.8
20260509024021 71 0 0.0 0.0 0.00 0.01 0.01 99 1013.8
20260509023515 71 0 0.0 0.0 0.00 0.01 0.01 99 1013.8
20260509023036 71 0 0.0 0.0 0.00 0.01 0.01 98 1013.7
20260509022514 71 0 0.0 0.0 0.00 0.01 0.01 99 1013.5
20260509022017 71 0 0.0 0.0 0.00 0.01 0.01 99 1013.5
20260509021534 71 0 0.0 0.0 0.00 0.01 0.01 99 1013.6
20260509021017 71 0 0.0 0.0 0.00 0.01 0.01 99 1013.6
20260509020514 71 0 0.0 0.0 0.00 0.01 0.01 99 1013.5
20260509020031 71 0 0.0 0.0 0.00 0.01 0.01 99 1013.4
20260509015514 71 0 0.0 0.0 0.00 0.01 0.01 99 1013.4
20260509015019 71 0 0.0 0.0 0.00 0.01 0.01 99 1013.3
20260509014532 71 0 0.0 0.0 0.00 0.01 0.01 99 1013.4
20260509014015 71 0 0.0 0.0 0.00 0.01 0.01 98 1013.4
20260509013515 71 0 0.0 0.0 0.00 0.01 0.01 99 1013.3
20260509013041 71 0 0.0 0.0 0.00 0.01 0.01 99 1013.5
20260509012512 71 0 0.0 0.0 0.00 0.01 0.01 99 1013.5
20260509012017 71 0 0.0 0.0 0.00 0.01 0.01 98 1013.6
20260509011531 71 0 0.0 0.0 0.00 0.01 0.01 98 1013.3
20260509011013 71 0 0.0 0.0 0.00 0.01 0.01 98 1013.1
20260509010513 71 0 0.0 0.0 0.00 0.01 0.01 98 1012.9
20260509010036 71 0 0.0 0.0 0.00 0.01 0.01 98 1012.8
20260509005513 71 0 0.0 0.0 0.00 0.01 0.01 98 1012.8
20260509005014 71 0 0.0 0.0 0.00 0.01 0.01 97 1012.7
20260509004543 71 0 0.0 0.0 0.00 0.01 0.01 97 1012.5
20260509004012 71 0 0.0 0.0 0.00 0.01 0.01 97 1012.5
20260509003515 71 0 0.0 0.0 0.01 0.01 0.01 97 1012.5